EUTELSAT 115 WEST A

Last updated on Thu Apr 28 2016 18:39:01 GMT+0100 (British Summer Time)

1 25558U 98070A 16119.03788019 -.00000053 00000-0 00000+0 0 9991 2 25558 2.3430 75.7839 0004341 321.2435 38.6625 0.98721306 63926
UTC large
Height (km)
Speed (km/s)
/
Latitude / Longitude
Inclination (degrees)
Orbital Period (minutes)
Azimuth
Elevation
Range (km)
Doppler Factor

Next 0 passes for location: London (51.5072 / 0.1276)

Sorry there are no passes over London.